Location: Musselshell
(46.5176°N, 108.0911°W)
Time: 21:43:14
(UTC+00:00)

PicSat - Pass Details

Date: 02 July 2022
Orbit: 446 x 455 km, 97.4° (Epoch: 13 August)

Event Time Altitude Azimuth Distance (km) Brightness Sun altitude
Exits shadow 05:00:09 24° 123° (ESE) 1,003 ? -13.9°
Maximum altitude 05:01:42 38° 71° (ENE) 726 ? -14.1°
Drops below altitude 10° 05:04:57 10° 3° (N) 1,621 ? -14.4°
Sets 05:07:05 0° 355° (N) 2,505 ? -14.5°
